TimeCDT,TemperatureF,Dew PointF,Humidity,Sea Level PressureIn,VisibilityMPH,Wind Direction,Wind SpeedMPH,Gust SpeedMPH,PrecipitationIn,Events,Conditions,WindDirDegrees,DateUTC
12:52 AM,64.9,61.0,87,30.17,10.0,Calm,Calm,-,N/A,,Mostly Cloudy,0,2013-08-17 05:52:00
1:52 AM,66.0,59.0,78,30.16,10.0,ESE,3.5,-,N/A,,Mostly Cloudy,120,2013-08-17 06:52:00
2:52 AM,64.0,60.1,87,30.17,10.0,East,3.5,-,N/A,,Mostly Cloudy,90,2013-08-17 07:52:00
3:52 AM,62.1,57.0,84,30.17,10.0,SE,3.5,-,N/A,,Scattered Clouds,140,2013-08-17 08:52:00
4:52 AM,64.0,57.0,78,30.17,10.0,East,3.5,-,N/A,,Overcast,100,2013-08-17 09:52:00
5:52 AM,63.0,57.9,84,30.17,10.0,Calm,Calm,-,N/A,,Overcast,0,2013-08-17 10:52:00
6:52 AM,63.0,57.0,81,30.18,10.0,Calm,Calm,-,N/A,,Overcast,0,2013-08-17 11:52:00
7:52 AM,66.0,57.9,75,30.19,10.0,ESE,3.5,-,N/A,,Mostly Cloudy,110,2013-08-17 12:52:00
8:52 AM,69.1,57.0,65,30.19,10.0,SE,9.2,-,N/A,,Mostly Cloudy,140,2013-08-17 13:52:00
9:52 AM,72.0,55.9,57,30.19,10.0,SSE,11.5,-,N/A,,Scattered Clouds,160,2013-08-17 14:52:00
10:52 AM,75.0,53.1,46,30.19,10.0,South,12.7,-,N/A,,Scattered Clouds,180,2013-08-17 15:52:00
11:52 AM,77.0,54.0,45,30.18,10.0,SSE,12.7,-,N/A,,Partly Cloudy,150,2013-08-17 16:52:00
12:52 PM,77.0,53.1,43,30.17,10.0,South,13.8,-,N/A,,Partly Cloudy,190,2013-08-17 17:52:00
1:52 PM,78.1,54.0,43,30.16,10.0,South,10.4,-,N/A,,Partly Cloudy,190,2013-08-17 18:52:00
2:52 PM,78.1,53.1,42,30.14,10.0,South,10.4,18.4,N/A,,Scattered Clouds,180,2013-08-17 19:52:00
3:52 PM,79.0,54.0,42,30.13,10.0,SSE,13.8,17.3,N/A,,Scattered Clouds,150,2013-08-17 20:52:00
4:52 PM,78.1,55.0,45,30.12,10.0,SE,11.5,-,N/A,,Scattered Clouds,140,2013-08-17 21:52:00
5:52 PM,77.0,55.0,47,30.11,10.0,SSE,10.4,-,N/A,,Scattered Clouds,150,2013-08-17 22:52:00
6:52 PM,75.9,55.0,48,30.11,10.0,SE,10.4,-,N/A,,Partly Cloudy,140,2013-08-17 23:52:00
7:52 PM,75.9,54.0,46,30.11,10.0,South,8.1,-,N/A,,Partly Cloudy,170,2013-08-18 00:52:00
8:52 PM,71.1,55.9,59,30.11,10.0,ESE,3.5,-,N/A,,Clear,110,2013-08-18 01:52:00
9:52 PM,68.0,55.9,65,30.12,10.0,ESE,3.5,-,N/A,,Clear,110,2013-08-18 02:52:00
10:52 PM,66.0,57.0,73,30.12,10.0,Calm,Calm,-,N/A,,Clear,0,2013-08-18 03:52:00
11:52 PM,61.0,57.9,90,30.13,10.0,Calm,Calm,-,N/A,,Clear,0,2013-08-18 04:52:00